This demonstration page uses our WeatherBlox Daily Observations layout. Learn more.

Left ArrowRight Arrow

38.88101, -77.10428

Hourly Observations for July 9, 2020

Temp ( °F °C ) Dew Point ( °F °C ) Humidity (%) Winds ( mph kmh ) Pressure ( in mb ) Visibility ( mi km ) Precip ( " mm )
12:52 am 00:52 Mostly Clear 78 25.6 72 22.2 82 82 S 8 13 29.94 1014 10 16.0934 0 0
1:52 am 01:52 Mostly Clear 78 25.6 73 22.8 85 85 SE 5 7 29.94 1014 10 16.0934 0 0
2:52 am 02:52 Mostly Clear 77 25 72 22.2 85 85 Calm 29.95 1014 10 16.0934 0 0
3:52 am 03:52 Partly Cloudy 77 25 73 22.8 88 88 ENE 6 9 29.95 1014 10 16.0934 0 0
4:52 am 04:52 Mostly Clear 76 24.4 73 22.8 91 91 Calm 29.95 1014 10 16.0934 0 0
5:52 am 05:52 Mostly Sunny 76 24.4 73 22.8 91 91 Calm 29.96 1014 10 16.0934 0 0
6:44 am 06:44 Mostly Cloudy 76 24.4 73 22.8 91 91 ENE 7 11 29.97 1015 10 16.0934 0 0
6:52 am 06:52 Mostly Cloudy 76 24.4 73 22.8 91 91 ENE 5 7 29.98 1015 10 16.0934 0 0
6:58 am 06:58 Cloudy 77 25 73 22.8 88 88 NE 6 9 29.98 1015 10 16.0934 0 0
7:08 am 07:08 Mostly Cloudy 77 25 74 23.3 90 90 E 3 6 29.98 1015 10 16.0934 0 0
7:16 am 07:16 Partly Cloudy 77 25 74 23.3 90 90 E 5 7 29.98 1015 10 16.0934 0 0
7:22 am 07:22 Mostly Cloudy 78 25.6 74 23.3 87 87 ENE 5 7 29.98 1015 10 16.0934 0 0
7:52 am 07:52 Partly Cloudy 79 26.1 74 23.3 85 85 NE 7 11 29.99 1016 10 16.0934 0 0
8:52 am 08:52 Partly Cloudy 81 27.2 73 22.8 77 77 ENE 6 9 29.99 1016 10 16.0934 0 0
9:52 am 09:52 Mostly Cloudy 83 28.3 72 22.2 70 70 NE 7 11 29.99 1016 10 16.0934 0 0
10:52 am 10:52 Mostly Cloudy 85 29.4 70 21.1 61 61 ENE 5 7 29.98 1015 10 16.0934 0 0
11:52 am 11:52 Mostly Cloudy 87 30.6 70 21.1 57 57 E 9 15 29.98 1015 10 16.0934 0 0
12:52 pm 12:52 Mostly Cloudy 86 30 70 21.1 59 59 E 12 19 29.97 1015 10 16.0934 0 0
1:52 pm 13:52 Partly Cloudy 87 30.6 71 21.7 59 59 ESE 12 19 29.96 1015 10 16.0934 0 0
2:52 pm 14:52 Partly Cloudy 88 31.1 68 20 52 52 VRB 6 9 29.95 1014 10 16.0934 0 0
3:52 pm 15:52 Partly Cloudy 89 31.7 70 21.1 53 53 ESE 8 13 29.93 1014 10 16.0934 0 0
4:52 pm 16:52 Partly Cloudy 89 31.7 70 21.1 53 53 SE 7 11 29.93 1014 10 16.0934 0 0
5:52 pm 17:52 Partly Cloudy 89 31.7 71 21.7 55 55 ENE 9 15 29.92 1013 10 16.0934 0 0
6:52 pm 18:52 Mostly Sunny 87 30.6 71 21.7 59 59 E 12 19 29.91 1013 10 16.0934 0 0
7:52 pm 19:52 Partly Cloudy 86 30 71 21.7 61 61 E 10 17 29.91 1013 10 16.0934 0 0
8:52 pm 20:52 Partly Cloudy 84 28.9 72 22.2 67 67 E 9 15 29.91 1013 10 16.0934 0 0
9:52 pm 21:52 Partly Cloudy 83 28.3 72 22.2 70 70 E 9 15 29.92 1013 10 16.0934 0 0
10:52 pm 22:52 Partly Cloudy 81 27.2 72 22.2 74 74 E 9 15 29.91 1013 10 16.0934 0 0
11:52 pm 23:52 Mostly Clear 80 26.7 73 22.8 79 79 ENE 6 9 29.93 1014 10 16.0934 0 0

Powered by AerisWeather